AKST,Max TemperatureF,Mean TemperatureF,Min TemperatureF,Max Dew PointF,MeanDew PointF,Min DewpointF,Max Humidity, Mean Humidity, Min Humidity, Max Sea Level PressureIn, Mean Sea Level PressureIn, Min Sea Level PressureIn, Max VisibilityMiles, Mean VisibilityMiles, Min VisibilityMiles, Max Wind SpeedMPH, Mean Wind SpeedMPH, Max Gust SpeedMPH,PrecipitationIn, CloudCover, Events, WindDirDegrees
2012-12-1,3,0,-2,0,-4,-6,92,85,83,30.06,29.99,29.93,10,8,2,12,10,,0.01,8,Snow,246
2012-12-2,0,-4,-8,-3,-7,-12,88,83,78,30.29,30.12,29.95,10,9,2,15,9,,0.00,8,Snow,234
2012-12-3,1,0,-2,-3,-5,-7,88,81,75,30.38,30.35,30.30,10,10,7,14,10,,0.00,8,Snow,232
2012-12-4,1,0,0,-2,-4,-6,85,81,75,30.38,30.30,30.24,10,6,2,17,9,,0.00,8,Snow,292
2012-12-5,1,0,-2,-2,-3,-6,87,84,79,30.47,30.34,30.24,10,7,2,17,11,,0.00,7,Snow,5
2012-12-6,1,0,-4,-2,-6,-9,91,83,78,30.49,30.47,30.44,10,8,3,18,9,,0.00,8,Snow,257
2012-12-7,-5,-11,-17,-9,-16,-21,87,82,77,30.50,30.48,30.46,10,7,2,9,7,,0.00,7,Snow,45
2012-12-8,-9,-14,-20,-15,-21,-25,84,79,76,30.46,30.31,30.07,10,6,2,21,12,,0.00,6,Snow,55
2012-12-9,-11,-22,-34,-16,-22,-34,78,77,73,30.04,29.94,29.91,10,8,2,21,13,,0.00,5,Snow,221
2012-12-10,-33,-34,-36,,,,,,,29.95,29.90,29.85,10,10,10,10,8,,0.00,0,Snow,214
2012-12-11,-24,-30,-36,-29,-32,-35,83,77,73,29.87,29.81,29.72,10,8,3,15,10,,0.00,3,Snow,231
2012-12-12,-25,-30,-34,-30,-32,-35,78,75,73,29.71,29.54,29.48,10,8,4,14,11,,0.00,4,Snow,238
2012-12-13,-32,-34,-36,,,,,,,29.68,29.61,29.52,10,8,3,15,13,,0.00,1,Snow,226
2012-12-14,-32,-34,-36,,,,,,,29.77,29.71,29.68,10,10,7,14,11,,0.00,0,,216
2012-12-15,-36,-38,-41,,,,,,,29.81,29.77,29.69,10,8,2,10,4,,0.00,0,,121
2012-12-16,-18,-28,-35,-25,-31,-35,78,73,69,29.78,29.69,29.65,10,10,4,15,8,,0.00,1,Snow,120
2012-12-17,-8,-18,-27,-13,-24,-33,84,77,73,29.88,29.72,29.49,10,6,1,24,13,,0.00,4,,143
2012-12-18,-2,-10,-18,-9,-17,-24,82,77,74,29.97,29.62,29.42,10,7,2,25,15,,0.15,6,,228
2012-12-19,-14,-18,-23,-22,-29,-37,78,60,38,30.55,30.32,30.01,10,5,2,25,18,25,0.00,2,Snow,233
2012-12-20,-6,-16,-25,-33,-36,-38,57,39,22,30.65,30.61,30.56,10,10,8,12,7,,0.00,1,,210
2012-12-21,1,-10,-15,-22,-28,-34,46,41,33,30.62,30.50,30.41,10,10,10,16,11,,0.00,0,,93
2012-12-22,5,0,-6,-17,-19,-22,54,42,32,30.40,30.37,30.34,10,10,10,16,11,,0.00,0,,86
2012-12-23,10,5,0,2,-3,-19,73,67,42,30.35,30.29,30.18,10,1,0,40,27,48,0.00,3,Fog-Snow,87
2012-12-24,9,2,-4,0,-7,-18,70,57,39,30.17,30.07,30.04,10,2,0,40,25,48,0.00,6,Snow,77
2012-12-25,5,-1,-7,-11,-15,-21,72,58,35,30.05,29.94,29.81,10,7,3,14,8,,0.00,7,Snow,21
2012-12-26,5,-2,-11,-11,-18,-24,72,47,32,29.83,29.82,29.80,10,10,10,12,8,,0.00,3,,271
2012-12-27,-4,-11,-18,-18,-24,-26,84,58,38,29.99,29.89,29.82,10,10,5,12,8,,0.00,4,,253
2012-12-28,1,-10,-20,-15,-20,-27,92,69,30,30.09,30.06,29.99,10,7,1,7,3,,0.00,6,Snow,359
2012-12-29,-2,-8,-14,-18,-20,-22,84,72,40,30.05,29.96,29.91,10,8,3,14,9,,0.00,2,,43
2012-12-30,-2,-8,-14,-9,-16,-20,84,73,55,29.95,29.87,29.78,10,4,1,25,16,32,0.00,7,Snow,42
2012-12-31,3,-1,-5,-8,-10,-14,92,75,49,30.12,29.96,29.80,10,4,1,24,20,,0.00,7,Snow,54